Location: Catstown
(52.4386°N, 7.2633°W)
Time: 05:30:26
(UTC+00:00)

Cosmos 1536 Rocket - Pass Details

Date: 18 September 2020
Orbit: 606 x 631 km, 82.5° (Epoch: 20 October)

Event Time Altitude Azimuth Distance (km) Brightness Sun altitude
Rises 20:07:44 0° 349° (N) 2,913 7.5 -14.4°
Reaches altitude 10° 20:09:59 10° 350° (N) 2,006 6.6 -14.7°
Maximum altitude 20:14:26 83° 77° (ENE) 638 3.5 -15.4°
Enters shadow 20:18:27 13° 168° (SSE) 1,827 5.6 -15.9°
